METAR Formatted Surface Weather Observation
Issued by NWS Mt. Holly, NJ

Home | Current Version | Previous Version | Text Only | Print | Product List | Glossary On
Versions: 1 2 3 4 5 6 7 8 9 10 11 12 13 14 15 16 17 18 19 20 21 22 23 24 25 26 27 28 29 30 31 32 33 34 35 36 37 38 39 40 41 42 43 44 45 46 47 48 49 50
000
SAUS41 KPHI 281757
MTRACY
METAR KACY 281754Z 26013KT 240V300 10SM SCT047 28/17 A2959 RMK AO2
SLP019 T02830172 10289 20239 50000



USA.gov is the U.S. government's official web portal to all federal, state and local government web resources and services.